Date,TemperatureHighF,TemperatureAvgF,TemperatureLowF,DewpointHighF,DewpointAvgF,DewpointLowF,HumidityHigh,HumidityAvg,HumidityLow,PressureMaxIn,PressureMinIn,WindSpeedMaxMPH,WindSpeedAvgMPH,GustSpeedMaxMPH,PrecipitationSumIn
2013-1-1,16.9,10.0,3.7,6.2,2.3,-1.4,80,71,55,30.35,30.24,4,1,8,0.00
2013-1-2,24.7,17.4,9.9,20.5,10.1,1.5,84,73,65,30.25,30.10,7,3,13,0.00
2013-1-3,27.4,19.3,11.6,23.9,13.9,6.4,87,79,73,30.37,30.14,8,4,14,0.00
2013-1-4,32.5,21.4,10.1,23.0,15.3,5.6,85,78,64,30.31,30.20,9,3,18,0.00
2013-1-5,36.3,27.3,16.0,32.1,23.1,13.1,89,84,77,30.25,29.97,11,3,14,0.09
2013-1-6,25.8,20.3,15.5,20.0,14.4,11.7,85,78,67,30.35,29.99,8,3,12,0.00
2013-1-7,38.3,28.5,14.2,28.5,21.3,11.0,88,75,60,30.33,30.08,12,4,21,0.01
2013-1-8,40.4,33.5,24.3,33.1,27.5,21.5,90,79,70,30.11,29.97,10,4,19,0.00
2013-1-9,40.1,34.8,28.3,32.0,27.8,24.1,86,76,61,30.50,30.01,12,4,20,0.00
2013-1-10,41.9,32.7,23.5,35.9,27.4,21.0,95,82,52,30.50,29.81,10,3,16,0.24
2013-1-11,49.0,41.8,35.5,45.5,40.3,34.4,97,95,84,29.83,29.58,9,3,15,0.03
2013-1-12,50.8,30.5,20.3,44.8,22.9,12.1,84,73,66,30.09,29.59,15,7,26,0.00
2013-1-13,20.4,14.2,10.9,12.5,6.1,3.8,76,70,64,30.34,29.99,9,5,19,0.00
2013-1-14,26.7,17.0,8.7,14.3,8.7,3.0,82,70,54,30.53,30.34,7,2,10,0.00
2013-1-15,31.4,22.6,15.0,17.1,13.1,11.2,87,68,47,30.48,30.14,11,3,17,0.00
2013-1-16,38.3,29.2,19.3,34.2,21.7,10.5,90,74,63,30.14,29.87,11,5,17,0.00
2013-1-17,32.1,24.8,18.8,24.7,14.1,7.7,77,64,47,30.45,30.15,8,3,13,0.00
2013-1-18,49.5,37.0,23.4,34.0,27.2,17.2,81,68,54,30.44,29.88,18,7,25,0.00
2013-1-19,48.9,37.4,14.7,35.3,27.8,2.9,83,68,53,30.15,29.74,17,6,28,0.00
2013-1-20,16.1,11.6,6.9,3.4,1.1,-1.4,70,62,52,30.42,30.15,12,5,21,0.00
2013-1-21,11.6,4.1,-1.2,2.5,-7.2,-12.7,69,59,49,30.41,30.28,10,6,16,0.00
2013-1-22,10.7,4.7,-2.4,-0.8,-5.9,-10.5,74,61,52,30.49,30.40,7,3,15,0.00
2013-1-23,23.7,14.6,6.4,14.3,6.0,-4.5,83,68,55,30.54,30.18,12,5,16,0.00
2013-1-24,19.2,9.4,1.3,9.1,-1.0,-7.6,70,62,51,30.74,30.35,8,3,13,0.00
2013-1-25,28.9,21.8,13.7,18.0,11.1,5.3,78,64,53,30.35,30.03,12,5,26,0.00
2013-1-26,26.5,18.7,8.4,15.0,7.9,2.4,77,63,50,30.46,30.31,7,3,12,0.00
2013-1-27,37.1,29.9,26.2,36.5,24.1,14.9,100,80,61,30.35,29.83,10,5,15,0.03
2013-1-28,45.0,40.1,36.0,40.0,36.8,33.9,96,88,74,29.97,29.70,8,2,13,0.13
2013-1-29,57.3,43.5,34.1,55.1,41.8,32.6,98,94,85,29.74,29.51,8,3,12,0.70
2013-1-30,34.4,25.8,15.2,32.9,23.7,10.7,96,91,81,29.76,29.37,9,5,17,0.04
2013-1-31,15.5,6.5,-2.1,11.0,0.4,-8.4,82,75,67,30.34,29.76,10,5,21,0.00
2013-2-1,9.1,0.7,-6.7,6.3,-5.9,-12.8,88,73,63,30.47,30.18,8,4,12,0.00
2013-2-2,16.5,13.1,9.2,12.5,8.1,5.6,89,80,68,30.21,30.08,9,2,18,0.00
2013-2-3,20.7,17.3,12.3,16.8,11.7,8.3,91,79,66,30.14,30.00,10,4,15,0.00
2013-2-4,21.7,18.6,11.8,18.5,13.8,8.1,91,82,69,30.05,29.91,10,4,13,0.00
2013-2-5,32.9,23.9,10.7,27.0,19.3,7.3,89,83,75,30.16,29.86,8,3,15,0.00
2013-2-6,37.6,26.0,9.2,32.5,21.1,5.9,88,82,71,30.24,30.05,8,2,11,0.13
2013-2-7,36.4,33.9,29.5,34.4,31.4,25.5,95,91,83,30.15,29.94,10,2,16,0.33
2013-2-8,31.7,26.5,21.7,25.7,20.9,17.7,86,80,68,30.42,30.15,7,3,13,0.00
2013-2-9,31.7,27.1,21.7,27.4,23.1,17.9,90,85,80,30.41,30.05,11,5,18,0.00
2013-2-10,46.1,36.7,28.0,44.4,34.3,25.2,100,91,75,30.05,29.37,12,6,22,0.28
2013-2-11,35.2,29.2,23.8,30.9,23.1,17.1,89,78,71,30.12,29.48,16,10,26,0.00
2013-2-12,36.7,28.4,22.0,26.3,21.6,16.5,85,76,64,30.17,29.91,8,4,14,0.00
2013-2-13,40.1,32.8,23.4,32.4,27.3,20.5,90,80,68,29.91,29.66,7,2,11,0.00
2013-2-14,39.8,35.8,27.8,32.2,27.7,19.3,83,73,56,30.08,29.64,11,5,20,0.00
2013-2-15,27.8,21.8,14.5,19.3,9.8,6.0,70,60,44,30.31,30.08,8,4,16,0.00
2013-2-16,22.8,16.5,11.7,11.8,7.2,4.7,76,67,54,30.31,30.21,7,2,14,0.00
2013-2-17,31.7,23.0,11.8,22.8,13.9,4.7,80,68,59,30.24,29.87,11,5,21,0.00
2013-2-18,48.9,33.9,15.5,37.1,26.6,8.3,89,75,63,29.87,29.54,12,7,28,0.06
2013-2-19,15.4,9.6,4.2,8.1,1.9,-3.4,80,71,61,30.37,29.76,12,8,22,0.00
2013-2-20,23.9,13.4,4.0,11.9,4.2,-3.5,74,66,55,30.49,30.38,9,3,14,0.00
2013-2-21,26.0,19.9,13.7,23.6,15.1,8.1,93,81,75,30.45,29.99,13,6,22,0.00
2013-2-22,29.1,26.2,23.8,26.4,23.7,20.1,100,90,86,29.99,29.84,8,4,14,0.07
2013-2-23,27.7,22.7,18.8,20.1,17.1,13.9,87,79,66,30.04,29.95,9,4,14,0.02
2013-2-24,36.7,24.0,10.5,23.5,16.9,6.7,87,75,57,30.17,30.03,6,1,10,0.04
2013-2-25,41.0,30.7,20.7,30.3,24.2,16.8,87,77,60,30.20,30.00,6,1,9,0.00
2013-2-26,34.4,32.0,28.9,28.6,27.0,24.7,94,82,72,30.00,29.68,15,8,22,0.00
2013-2-27,33.1,30.8,28.4,32.0,29.3,26.9,100,94,92,29.87,29.71,7,4,15,0.17
2013-2-28,34.6,32.6,30.1,30.2,27.3,24.7,92,81,72,30.15,29.88,10,4,14,0.06
2013-3-1,30.2,26.5,21.4,24.8,18.5,14.2,83,72,65,30.32,30.15,10,5,15,0.00
2013-3-2,31.2,21.4,10.9,14.8,11.6,7.0,86,67,43,30.34,30.23,6,2,9,0.00
2013-3-3,33.1,22.6,9.8,14.7,10.9,5.0,83,62,40,30.24,30.11,5,1,7,0.00
2013-3-4,32.6,27.2,23.6,24.7,19.3,12.2,87,72,59,30.13,29.98,12,6,18,0.01
2013-3-5,30.7,28.1,26.7,29.0,26.0,23.4,94,92,87,30.21,29.93,8,3,16,0.09
2013-3-6,31.5,25.8,16.1,23.7,20.7,12.4,88,81,69,30.40,30.21,7,3,17,0.06
2013-3-7,33.9,23.1,6.8,24.7,17.4,3.3,87,79,67,30.48,30.40,4,1,8,0.19
2013-3-8,39.1,30.2,18.9,29.0,24.1,15.9,89,79,65,30.47,30.26,11,4,16,0.02
2013-3-9,39.1,37.0,33.5,37.8,33.8,28.1,95,88,76,30.26,29.78,10,5,20,0.82
2013-3-10,42.0,38.7,35.4,40.7,37.6,34.1,96,95,94,29.79,29.60,13,2,25,0.45
2013-3-11,35.5,32.7,28.9,34.0,29.8,24.1,95,89,81,29.88,29.64,8,4,13,0.01
2013-3-12,33.9,27.9,24.0,27.4,21.5,17.6,88,77,64,30.14,29.88,11,6,22,0.00
2013-3-13,33.9,26.5,21.0,18.0,15.1,10.1,80,63,41,30.40,30.14,8,5,18,0.00
2013-3-14,39.0,29.5,23.0,29.8,23.5,16.0,91,78,67,30.39,30.11,9,3,11,0.02
2013-3-15,39.2,32.8,27.8,35.4,29.8,25.0,92,89,84,30.11,29.80,7,2,10,0.03
2013-3-16,34.3,31.0,27.4,32.2,25.6,19.9,92,81,67,30.20,29.81,8,4,12,0.00
2013-3-17,33.0,27.6,21.2,23.5,18.4,11.3,79,68,60,30.28,30.00,10,6,18,0.00
2013-3-18,32.8,26.3,17.3,31.0,22.4,10.7,94,85,74,30.00,29.66,13,5,24,0.12
2013-3-19,27.8,19.9,12.0,15.2,10.3,5.6,78,66,54,30.20,29.90,13,8,19,0.00
2013-3-20,23.1,16.0,9.5,10.5,5.0,0.1,70,62,52,30.24,30.14,11,6,20,0.00
2013-3-21,29.8,19.8,9.5,13.0,8.6,3.4,77,62,47,30.18,30.07,7,2,11,0.00
2013-3-22,35.6,26.2,14.9,22.3,15.1,9.7,82,64,44,30.14,30.06,5,2,9,0.00
2013-3-23,39.3,32.9,23.1,24.6,21.4,16.7,84,64,43,30.17,30.07,7,2,10,0.00
2013-3-24,33.6,30.6,28.1,28.7,26.0,22.1,92,83,64,30.09,29.84,12,5,17,0.03
2013-3-25,36.9,32.3,27.8,26.6,23.0,19.0,87,68,57,30.19,29.90,12,5,18,0.01
2013-3-26,41.2,34.1,26.6,25.3,22.1,19.4,76,62,48,30.33,30.19,8,3,11,0.00
2013-3-27,44.7,37.1,30.5,25.3,23.1,17.2,75,58,39,30.38,30.32,6,2,14,0.00
2013-3-28,48.8,38.4,26.0,29.5,25.1,20.9,84,61,41,30.40,30.30,8,2,10,0.00
2013-3-29,54.6,44.1,31.8,33.4,30.1,27.3,85,60,37,30.35,30.23,4,1,8,0.00
2013-3-30,53.2,45.5,38.5,43.3,36.9,28.3,89,72,63,30.23,29.87,13,5,21,0.00
2013-3-31,47.1,40.0,32.9,41.7,32.2,22.6,91,74,55,30.01,29.82,11,5,18,0.00
2013-4-1,36.5,31.3,26.6,23.0,18.1,13.3,70,59,45,30.28,30.01,9,5,17,0.00
2013-4-2,40.9,32.7,25.0,21.6,17.9,12.5,78,56,36,30.38,30.28,10,3,18,0.00
2013-4-3,46.0,35.9,24.4,23.1,18.5,14.0,75,51,32,30.49,30.31,8,2,13,0.00
2013-4-4,59.0,44.8,31.5,40.3,29.6,21.0,71,56,40,30.30,30.01,11,4,20,0.00
2013-4-5,51.7,43.9,34.5,31.1,25.9,21.3,70,50,32,30.26,30.06,13,4,18,0.00
2013-4-6,63.9,49.9,38.7,50.5,35.2,16.9,83,58,39,30.05,29.57,16,8,21,0.01
2013-4-7,60.1,48.3,38.6,42.5,37.4,32.8,81,67,49,29.98,29.70,11,4,17,0.00
2013-4-8,67.7,54.1,41.7,54.8,46.9,37.4,93,77,63,29.93,29.65,9,3,13,0.48
2013-4-9,51.9,44.3,39.7,47.3,41.8,36.8,95,91,85,29.98,29.83,12,7,20,1.37
2013-4-10,39.7,37.1,34.3,37.0,33.6,-99.9,94,90,88,30.09,29.76,17,8,19,1.17
2013-4-11,42.7,39.6,37.3,41.4,37.7,34.9,95,93,89,29.82,29.58,14,6,19,0.29
2013-4-12,41.3,37.1,35.0,37.1,32.4,27.6,93,83,70,29.89,29.59,10,5,20,0.03
2013-4-13,43.2,37.2,32.0,33.1,28.2,25.0,80,70,57,30.00,29.88,12,5,20,0.00
2013-4-14,71.0,50.1,34.2,54.1,40.3,28.6,91,71,46,30.00,29.51,15,7,23,0.28
2013-4-15,55.9,47.3,40.9,50.9,40.7,34.2,93,79,54,30.02,29.61,12,4,23,0.12
2013-4-16,53.0,44.3,34.4,35.7,32.0,28.6,80,63,45,30.28,30.02,8,3,12,0.00
2013-4-17,47.3,42.7,39.3,43.4,37.7,-99.9,95,85,64,30.29,29.81,15,6,20,2.13
2013-4-18,59.0,46.0,35.1,58.0,43.9,31.7,97,93,81,29.84,29.34,14,6,25,0.70
2013-4-19,38.5,35.4,33.5,32.0,28.9,26.2,89,77,63,30.01,29.51,17,9,26,0.01
2013-4-20,46.0,38.0,28.8,29.4,24.8,20.6,89,62,38,30.39,30.01,7,2,12,0.00
2013-4-21,56.6,46.2,37.3,41.8,33.7,25.7,69,62,53,30.46,30.22,14,8,21,0.00
2013-4-22,67.3,56.7,46.8,48.2,40.8,38.4,78,57,36,30.24,29.97,12,6,18,0.00
2013-4-23,54.6,42.5,37.5,48.6,34.9,27.8,86,75,63,30.06,29.95,11,5,18,0.00
2013-4-24,52.8,43.4,32.6,37.5,27.6,22.6,82,55,37,30.11,30.04,13,5,19,0.02
2013-4-25,52.9,43.9,35.0,37.6,29.0,21.8,83,59,31,30.29,30.06,10,5,18,0.01
2013-4-26,68.8,56.3,42.7,48.8,40.5,29.2,73,56,43,30.28,30.16,18,8,27,0.00
2013-4-27,64.5,57.4,49.2,48.4,46.1,43.8,85,67,51,30.24,30.00,9,3,14,0.00
2013-4-28,74.8,59.7,43.3,48.3,45.3,39.8,92,62,37,30.00,29.78,6,2,9,0.00
2013-4-29,78.0,64.4,54.5,61.2,54.4,46.6,88,71,52,29.85,29.63,11,4,15,0.04
2013-4-30,88.3,75.9,62.3,60.2,54.6,49.1,88,53,27,29.84,29.64,15,8,27,0.02
2013-5-1,78.9,65.0,48.4,56.8,49.8,39.8,72,59,45,30.21,29.85,13,5,22,0.00
2013-5-2,48.3,41.4,36.1,39.9,36.2,33.1,91,82,71,30.32,30.21,12,8,20,0.27
2013-5-3,46.3,38.6,34.4,44.9,36.5,31.8,95,92,89,30.27,29.99,10,6,18,1.68
2013-5-4,69.6,58.6,46.3,58.3,52.1,44.9,95,80,56,30.04,29.97,10,3,18,0.09
2013-5-5,73.8,63.1,49.2,55.2,50.3,47.3,95,67,40,30.06,29.97,5,1,10,0.00
2013-5-6,77.1,64.8,50.2,51.3,48.0,44.9,86,58,34,30.08,29.97,5,1,10,0.00
2013-5-7,79.2,66.0,51.6,52.6,48.2,42.6,87,57,30,30.06,29.96,5,1,8,0.00
2013-5-8,80.1,67.5,52.5,56.4,50.9,46.8,86,59,32,30.02,29.94,9,2,15,0.00
2013-5-9,65.6,61.7,54.1,61.6,57.7,51.3,94,87,72,29.95,29.81,10,3,15,0.56
2013-5-10,58.7,51.8,46.4,51.2,46.9,42.9,91,83,72,30.01,29.85,11,5,18,0.01
2013-5-11,54.5,51.1,44.4,49.5,35.2,23.9,92,58,33,30.13,29.88,14,7,26,0.00
2013-5-12,56.5,47.1,37.5,32.2,27.3,22.8,66,47,32,30.20,30.10,9,4,20,0.00
2013-5-13,69.0,55.3,36.5,43.5,34.6,25.5,81,50,26,30.19,29.89,8,3,16,0.00
2013-5-14,94.0,75.8,56.4,63.7,54.0,43.1,69,49,25,29.89,29.55,13,5,18,0.00
2013-5-15,82.1,73.1,64.3,60.1,47.7,41.9,58,42,28,29.87,29.61,7,3,12,0.00
2013-5-16,83.3,71.4,56.5,56.2,49.6,43.8,82,50,26,29.92,29.83,9,2,12,0.03
2013-5-17,77.5,67.6,61.1,59.9,53.0,46.8,66,60,53,30.00,29.89,9,5,15,0.00
2013-5-18,82.4,70.5,57.7,64.9,58.3,50.0,78,66,50,30.01,29.87,11,4,20,0.00
2013-5-19,82.5,73.5,66.0,70.5,63.4,55.4,91,72,46,29.90,29.57,18,6,29,0.33
2013-5-20,81.8,72.3,62.9,64.5,62.1,59.4,94,72,50,29.73,29.58,15,7,22,0.13
2013-5-21,74.1,68.4,62.9,61.0,58.6,56.3,89,72,56,29.66,29.58,12,5,22,0.00
2013-5-22,70.6,62.4,59.0,58.0,56.2,52.1,93,81,56,29.76,29.62,8,2,13,0.20
2013-5-23,66.3,58.5,52.7,57.4,47.7,38.4,93,70,39,30.29,29.76,11,6,18,0.19
2013-5-24,65.8,55.8,44.0,48.8,40.0,33.1,82,57,37,30.46,30.28,8,3,13,0.00
2013-5-25,58.8,51.8,48.9,49.3,45.3,41.5,89,79,66,30.38,30.26,10,4,14,0.21
2013-5-26,56.7,52.1,47.1,53.6,45.9,37.9,93,80,61,30.30,30.08,12,4,14,0.55
2013-5-27,62.8,57.4,53.2,60.2,55.5,50.9,96,93,91,30.08,29.83,8,5,15,0.01
2013-5-28,73.0,63.6,55.5,70.2,62.0,54.4,97,95,88,29.83,29.66,4,0,8,0.65
2013-5-29,82.6,71.1,61.4,70.2,64.2,59.0,94,80,63,29.89,29.74,11,3,20,0.02
2013-5-30,80.8,71.9,63.7,70.2,65.7,60.2,93,81,64,29.82,29.63,15,5,24,0.18
2013-5-31,76.4,69.6,63.3,65.8,62.5,58.9,90,79,56,29.74,29.65,15,6,22,0.00
2013-6-1,74.8,69.2,64.0,66.0,60.9,54.6,94,76,51,29.74,29.62,10,4,17,0.00
2013-6-2,64.3,57.9,52.4,59.4,47.2,41.0,85,69,51,30.04,29.75,9,3,17,0.00
2013-6-3,70.2,60.6,47.1,49.8,46.4,43.7,89,62,41,30.12,30.00,6,1,11,0.00
2013-6-4,66.8,61.3,58.4,55.2,50.7,44.2,85,69,45,30.17,30.05,10,1,14,0.12
2013-6-5,67.8,59.4,54.5,60.5,55.3,50.4,94,86,74,30.08,29.91,6,1,11,0.49
2013-6-6,63.5,59.6,56.5,58.2,55.8,53.5,95,87,79,29.96,29.89,5,1,9,0.00
2013-6-7,71.3,62.9,55.9,59.0,53.2,49.9,89,72,52,30.00,29.91,5,1,9,0.00
2013-6-8,72.9,66.4,58.7,56.5,53.5,49.6,91,65,50,29.96,29.91,7,2,13,0.00
2013-6-9,74.2,66.1,62.4,64.4,57.8,48.5,94,76,53,29.93,29.76,10,2,17,0.33
2013-6-10,77.8,68.4,59.6,63.7,61.5,58.2,97,80,59,29.87,29.75,7,1,14,0.00
2013-6-11,84.9,73.3,60.1,68.8,64.1,57.8,93,75,51,29.91,29.78,8,1,13,0.00
2013-6-12,84.5,75.1,68.0,73.7,68.3,64.5,93,80,67,29.89,29.59,14,2,19,0.66
2013-6-13,81.2,71.7,61.8,64.9,59.3,54.6,91,67,43,30.02,29.72,10,3,15,0.00
2013-6-14,77.5,69.6,61.0,60.7,56.7,51.5,82,64,50,30.13,29.94,8,4,14,0.00
2013-6-15,83.3,73.9,64.5,71.4,65.2,57.3,92,75,61,30.00,29.80,11,4,18,0.06
2013-6-16,87.6,77.3,66.9,67.1,59.5,50.0,91,59,29,29.92,29.87,8,2,14,0.00
2013-6-17,90.1,77.7,62.8,61.7,58.1,55.0,80,54,32,29.92,29.84,8,2,15,0.00
2013-6-18,77.5,69.1,60.6,58.9,55.7,52.3,78,63,49,30.05,29.90,10,5,14,0.00
2013-6-19,80.7,70.2,57.7,62.9,54.7,46.1,76,59,47,30.13,30.02,6,3,10,0.00
2013-6-20,88.8,78.3,68.1,64.5,61.2,57.6,80,57,39,30.10,29.97,11,5,17,0.00
2013-6-21,79.4,74.2,66.7,68.5,66.0,61.8,93,76,60,30.10,29.89,14,6,20,0.28
2013-6-22,89.2,77.2,66.5,77.8,70.4,64.2,95,80,65,30.12,29.84,14,7,25,0.67
2013-6-23,85.6,76.9,67.4,72.5,66.7,63.2,90,72,51,30.03,29.81,13,6,21,0.02
2013-6-24,74.7,70.6,68.1,67.9,66.2,64.5,92,86,76,30.00,29.84,11,4,17,0.10
2013-6-25,83.2,74.3,66.2,75.7,70.4,64.2,97,88,74,29.92,29.74,10,3,17,1.42
2013-6-26,86.1,77.1,67.4,74.0,70.8,65.3,96,82,54,29.76,29.66,7,2,10,0.55
2013-6-27,90.0,80.2,70.2,71.3,66.0,59.1,88,64,38,29.82,29.73,12,4,23,0.00
2013-6-28,81.7,74.6,68.2,63.5,61.2,59.4,79,64,49,29.77,29.65,10,5,22,0.00
2013-6-29,74.8,68.6,65.4,64.9,62.1,58.1,91,80,63,29.84,29.64,11,5,16,0.19
2013-6-30,79.2,70.5,63.3,60.4,56.2,52.0,79,62,44,30.04,29.84,10,5,16,0.00
2013-7-1,80.0,70.4,59.0,57.5,54.7,51.6,87,60,39,30.12,30.04,11,4,19,0.00
2013-7-2,79.7,69.6,58.5,59.5,55.7,48.7,89,63,45,30.11,30.03,8,3,13,0.00
2013-7-3,75.8,66.8,55.5,61.8,55.8,50.2,87,69,48,30.09,30.01,5,2,10,0.00
2013-7-4,84.2,73.5,59.6,64.4,59.9,56.4,90,65,42,30.06,29.97,8,3,15,0.00
2013-7-5,86.3,77.1,67.2,65.0,63.1,61.1,83,63,45,30.03,29.95,11,5,18,0.00
2013-7-6,87.8,78.4,69.8,68.1,64.5,61.5,79,64,44,30.01,29.91,10,5,19,0.00
2013-7-7,89.3,80.8,71.5,73.0,69.2,65.7,82,69,53,29.94,29.87,10,5,15,0.00
2013-7-8,91.0,80.2,70.1,78.0,72.9,68.0,93,79,60,29.96,29.89,8,4,19,1.14
2013-7-9,86.8,79.8,72.7,77.3,74.5,70.2,92,84,71,29.97,29.83,11,4,16,0.31
2013-7-10,81.4,76.6,67.9,76.7,64.7,56.8,88,68,46,30.01,29.85,11,3,15,0.00
2013-7-11,81.9,72.8,62.0,64.2,60.1,56.8,88,66,48,30.11,30.01,6,2,12,0.00
2013-7-12,82.7,73.3,61.3,64.7,60.5,57.6,91,66,45,30.14,30.04,9,3,16,0.00
2013-7-13,81.8,73.4,66.0,66.0,61.7,57.3,83,67,54,30.13,30.05,10,3,13,0.00
2013-7-14,85.9,76.7,64.4,71.6,66.3,60.9,89,72,54,30.18,30.11,10,3,15,0.00
2013-7-15,89.3,81.2,71.2,75.3,71.7,67.3,89,74,57,30.24,30.16,8,3,13,0.00
2013-7-16,91.5,84.0,76.2,75.9,74.4,72.4,89,74,58,30.25,30.19,9,4,12,0.00
2013-7-17,94.8,86.5,78.2,75.5,73.8,71.7,83,67,49,30.28,30.14,7,2,11,0.00
2013-7-18,92.5,86.1,78.2,75.7,73.5,71.9,83,67,52,30.15,29.89,10,4,18,0.00
2013-7-19,90.9,83.3,75.4,74.5,70.3,66.0,76,65,51,29.89,29.74,10,5,21,0.00
2013-7-20,87.7,75.6,67.2,68.6,65.4,62.3,88,72,48,29.92,29.84,11,2,15,0.02
2013-7-21,83.0,73.1,66.6,71.1,66.9,63.1,93,82,64,29.93,29.82,12,4,16,0.09
2013-7-22,87.5,75.6,64.7,75.4,67.3,59.1,94,77,57,29.89,29.65,17,4,24,0.07
2013-7-23,78.0,71.5,66.6,63.7,58.3,55.0,87,64,48,29.99,29.75,10,5,17,0.00
2013-7-24,77.0,67.4,59.0,58.8,56.0,52.9,84,68,46,30.08,29.99,6,2,9,0.00
2013-7-25,82.0,70.9,61.4,65.5,61.3,56.7,93,73,53,30.07,29.98,11,5,18,0.46
2013-7-26,79.5,69.7,63.6,68.6,61.3,55.5,92,76,48,30.00,29.87,12,5,20,0.08
2013-7-27,64.4,58.5,53.4,55.8,49.9,46.3,90,74,55,29.99,29.94,10,4,13,0.04
2013-7-28,71.0,61.0,52.4,53.2,50.6,47.8,85,70,52,30.06,29.91,9,3,15,0.00
2013-7-29,77.3,65.9,52.6,58.9,54.5,49.6,91,69,47,30.16,30.06,7,2,11,0.00
2013-7-30,71.3,65.7,61.5,63.6,61.2,56.8,93,85,76,30.14,30.06,9,3,14,0.00
2013-7-31,81.6,71.3,64.7,67.6,64.4,62.7,95,80,57,30.07,29.96,6,2,11,0.02
2013-8-1,81.6,72.4,60.6,62.9,58.3,52.2,87,63,41,30.03,29.89,7,3,13,0.00
2013-8-2,83.1,74.2,68.5,66.3,62.3,59.4,83,68,46,29.96,29.83,6,3,11,0.00
2013-8-3,80.0,70.9,60.2,59.7,55.6,51.0,83,60,40,30.15,29.97,8,2,15,0.00
2013-8-4,78.3,68.7,57.4,58.6,55.2,51.2,89,65,42,30.21,30.08,6,2,9,0.00
2013-8-5,72.6,67.6,61.4,67.8,62.7,57.3,94,84,72,30.08,29.83,11,4,16,0.43
2013-8-6,84.9,75.9,69.4,74.1,70.4,67.0,96,84,62,29.87,29.77,9,3,14,0.01
2013-8-7,81.5,75.2,66.4,73.2,65.4,60.7,87,72,57,29.96,29.75,10,4,18,0.00
2013-8-8,81.7,71.1,62.4,64.3,61.0,57.3,84,72,45,30.03,29.96,7,2,12,0.00
2013-8-9,81.1,72.3,63.9,66.2,61.9,57.8,90,71,52,30.07,29.97,7,2,11,0.00
2013-8-10,78.8,70.0,58.4,59.8,57.3,54.4,88,66,46,30.16,30.08,7,2,15,0.00
2013-8-11,80.3,71.3,63.7,67.7,63.0,57.9,86,76,62,30.13,30.00,7,2,12,0.00
2013-8-12,82.1,73.6,67.2,67.5,64.5,59.6,92,75,50,30.01,29.89,7,2,13,0.00
2013-8-13,73.3,65.8,59.0,59.7,52.5,47.2,87,64,42,30.14,29.96,9,3,14,0.00
2013-8-14,76.8,65.0,53.9,55.9,52.5,49.4,91,67,41,30.21,30.11,7,1,9,0.00
2013-8-15,75.8,67.1,58.5,57.6,54.4,51.6,86,66,45,30.15,30.07,7,1,10,0.00
2013-8-16,80.8,68.3,55.6,60.6,55.9,52.1,89,67,42,30.18,30.12,6,1,9,0.00
2013-8-17,81.1,70.0,58.2,61.7,57.6,55.5,91,67,42,30.21,30.12,7,2,13,0.00
2013-8-18,81.3,70.4,58.4,61.9,58.6,55.3,90,68,45,30.19,30.06,7,2,11,0.00
2013-8-19,82.4,72.4,61.8,66.5,62.1,58.1,89,71,50,30.08,29.98,10,3,14,0.00
2013-8-20,86.5,77.3,68.7,68.5,66.3,64.1,88,70,54,30.03,29.94,11,5,20,0.00
2013-8-21,88.8,80.2,71.9,72.8,69.2,65.8,81,70,55,29.98,29.89,13,6,20,0.00
2013-8-22,78.4,73.4,67.9,71.7,67.7,65.3,93,83,72,30.13,29.94,9,3,14,0.77
2013-8-23,82.5,72.3,64.4,67.7,63.2,58.2,96,76,48,30.16,30.07,10,2,14,0.00
2013-8-24,85.4,75.1,64.3,71.9,64.2,54.2,76,69,62,30.20,30.08,10,5,16,0.00
2013-8-25,90.0,80.7,73.0,72.9,69.2,67.2,82,69,49,30.16,30.05,13,7,22,0.00
2013-8-26,92.3,82.1,73.1,76.9,71.3,65.7,80,70,56,30.08,29.91,11,4,15,0.00
2013-8-27,94.8,85.0,76.1,76.6,73.0,69.3,81,68,54,29.93,29.77,12,4,17,0.00
2013-8-28,85.7,80.2,75.6,76.8,73.9,70.8,91,81,70,29.99,29.81,7,2,10,0.00
2013-8-29,87.1,78.8,71.5,74.4,71.1,68.4,90,78,63,30.03,29.91,9,3,13,0.00
2013-8-30,96.9,82.2,74.4,78.7,74.0,70.2,94,77,53,29.91,29.72,9,3,19,0.07
2013-8-31,82.6,75.2,68.2,73.4,69.6,65.3,95,83,69,29.87,29.74,9,3,17,1.55
2013-9-1,86.6,75.5,68.1,73.2,67.2,60.9,95,77,48,29.85,29.71,6,2,13,0.00
2013-9-2,72.6,65.9,59.2,61.2,57.0,52.8,88,74,55,30.01,29.84,8,3,14,0.00
2013-9-3,77.5,64.8,53.4,59.3,55.2,50.9,92,73,50,30.09,30.00,7,1,12,0.00
2013-9-4,86.1,71.5,56.2,69.5,61.8,53.2,90,73,53,30.11,30.03,6,1,12,0.00
2013-9-5,80.3,72.3,65.4,67.8,65.2,61.4,94,79,62,30.20,30.08,7,3,12,0.00
2013-9-6,87.3,74.2,61.1,66.5,60.4,51.3,79,63,43,30.17,29.93,9,4,17,0.00
2013-9-7,89.8,79.0,69.6,73.6,67.7,62.5,84,69,54,29.94,29.83,9,2,14,0.00
2013-9-8,78.0,72.5,67.9,71.6,67.2,63.4,88,83,77,29.99,29.87,10,5,16,0.00
2013-9-9,97.8,80.9,68.0,75.9,69.8,65.2,94,72,43,29.90,29.73,10,4,17,0.00
2013-9-10,95.8,85.2,76.2,68.8,66.1,63.3,68,54,38,29.92,29.80,11,4,16,0.00
2013-9-11,83.1,75.7,68.4,69.0,66.3,62.1,85,73,54,30.03,29.92,7,2,19,0.05
2013-9-12,75.4,68.4,62.3,65.2,55.2,49.3,86,65,41,30.13,29.98,11,4,18,0.00
2013-9-13,68.9,59.7,51.2,50.0,45.1,41.3,78,60,38,30.23,30.11,7,3,11,0.00
2013-9-14,72.6,61.2,48.6,48.9,46.4,43.6,84,60,39,30.17,29.94,10,4,16,0.00
2013-9-15,64.1,58.4,55.1,58.2,53.7,46.6,93,85,53,30.20,29.91,7,3,13,0.54
2013-9-16,67.0,58.4,51.4,54.6,48.4,42.6,93,71,48,30.39,30.21,9,4,12,0.00
2013-9-17,67.3,58.6,48.2,58.4,51.8,44.5,88,78,68,30.32,30.04,10,4,16,0.00
2013-9-18,80.3,70.1,63.7,71.0,64.1,57.4,93,81,72,30.04,29.80,10,5,13,0.23
2013-9-19,89.8,75.2,66.0,71.8,68.6,63.7,94,81,54,29.83,29.68,14,5,20,0.82
2013-9-20,67.3,63.0,56.2,65.8,57.2,50.5,95,82,67,29.87,29.73,8,3,17,0.07
2013-9-21,66.5,56.9,49.2,51.6,49.5,46.7,92,77,56,29.95,29.87,6,1,13,0.00
2013-9-22,68.3,57.1,46.1,54.2,49.6,44.5,96,78,52,30.05,29.94,4,1,9,0.00
2013-9-23,71.1,59.8,49.9,54.0,50.0,46.6,89,71,50,30.07,29.95,10,4,16,0.00
2013-9-24,73.8,61.5,51.5,55.7,51.4,47.5,87,71,49,29.99,29.89,8,2,11,0.00
2013-9-25,73.8,61.6,50.7,56.7,52.2,47.6,90,73,48,29.97,29.89,5,0,7,0.00
2013-9-26,78.8,64.7,51.9,61.6,55.2,48.7,90,73,54,30.02,29.94,10,2,16,0.00
2013-9-27,81.0,68.9,59.0,61.8,55.3,52.2,81,63,42,30.07,29.95,11,2,17,0.00
2013-9-28,78.7,65.3,54.1,66.1,57.5,51.8,94,77,59,29.98,29.81,14,3,23,0.30
2013-9-29,70.4,58.4,46.8,54.4,49.3,45.4,95,75,42,30.07,29.96,6,1,10,0.02
2013-9-30,75.0,62.3,50.1,54.5,49.7,46.4,90,67,38,29.96,29.78,11,3,20,0.00
2013-10-1,82.4,68.7,59.3,62.6,59.2,54.3,91,74,50,29.95,29.81,12,2,16,0.00
2013-10-2,78.3,65.0,51.7,59.3,52.4,44.2,92,68,35,30.08,29.90,6,0,13,0.00
2013-10-3,74.6,67.7,62.2,70.8,64.6,58.4,94,90,80,29.90,29.77,5,1,11,0.21
2013-10-4,70.9,67.6,65.0,67.3,65.1,63.3,96,92,82,29.95,29.81,11,2,17,0.65
2013-10-5,73.1,67.0,51.7,68.3,61.4,40.4,95,83,63,29.83,29.72,10,3,18,0.00
2013-10-6,53.0,47.4,44.1,44.6,41.1,38.6,92,79,59,29.80,29.70,6,1,13,0.04
2013-10-7,71.6,56.4,44.1,50.1,46.6,41.4,91,73,40,30.06,29.78,9,2,16,0.00
2013-10-8,77.1,61.5,47.9,53.7,48.2,44.4,94,66,33,30.12,30.03,11,3,20,0.01
2013-10-9,72.4,62.4,54.1,52.5,49.7,47.6,84,65,43,30.17,30.07,9,3,14,0.00
2013-10-10,74.1,59.7,46.6,57.7,51.9,44.6,93,77,52,30.14,29.98,8,2,12,0.00
2013-10-11,76.2,65.4,55.0,59.9,55.4,52.3,92,72,49,29.99,29.82,14,5,25,0.00
2013-10-12,68.9,62.4,50.0,58.2,47.6,37.6,83,60,40,30.17,29.82,11,4,23,0.00
2013-10-13,63.0,51.1,41.1,40.6,38.1,34.9,83,63,36,30.42,30.17,6,1,15,0.00
2013-10-14,63.8,50.8,37.3,45.7,41.1,34.5,92,71,49,30.42,30.04,11,4,19,0.00
2013-10-15,61.1,54.5,49.9,57.9,47.9,42.3,94,79,61,30.04,29.75,12,6,20,0.14
2013-10-16,51.2,49.7,48.1,46.8,45.1,44.2,92,84,81,29.95,29.81,9,4,15,0.00
2013-10-17,59.0,49.6,43.8,46.1,41.9,36.8,93,77,45,29.94,29.81,7,2,10,0.07
2013-10-18,50.7,46.2,42.1,42.2,37.3,33.5,92,72,53,29.97,29.83,8,3,15,0.00
2013-10-19,51.7,43.2,37.3,40.8,36.1,31.6,92,77,53,29.93,29.77,11,3,19,0.05
2013-10-20,54.5,43.8,33.9,47.6,38.5,30.3,92,82,71,29.85,29.71,9,3,12,0.02
2013-10-21,48.7,39.9,33.4,42.5,29.0,23.0,81,66,46,30.00,29.82,10,4,21,0.00
2013-10-22,43.2,36.3,28.9,31.6,28.5,25.0,86,74,55,30.02,29.93,4,1,9,0.00
2013-10-23,41.9,36.9,30.2,31.9,27.4,23.6,87,69,49,30.07,30.01,6,2,13,0.00
2013-10-24,43.7,36.3,31.1,26.3,24.4,22.0,78,62,49,30.35,30.07,7,3,14,0.00
2013-10-25,53.5,41.4,28.4,32.5,28.0,23.9,84,61,39,30.40,29.99,12,4,21,0.00
2013-10-26,51.7,45.6,38.2,34.9,30.9,27.7,74,57,43,30.10,29.85,10,5,20,0.00
2013-10-27,56.0,42.5,31.1,33.1,30.6,26.8,85,65,39,30.09,29.91,11,2,16,0.00
2013-10-28,46.1,41.7,36.5,35.9,33.5,31.5,82,73,65,30.38,30.02,11,5,16,0.00
2013-10-29,58.6,47.6,38.0,42.8,36.7,30.3,81,67,49,30.38,30.09,9,4,13,0.00
2013-10-30,57.4,52.4,49.9,56.0,49.7,42.5,97,91,71,30.09,29.70,8,3,10,0.11
2013-10-31,61.8,53.4,42.0,60.4,51.1,37.8,96,92,85,29.68,29.35,10,4,15,0.11
2013-11-1,50.1,45.1,40.6,42.4,39.3,36.1,86,80,68,29.78,29.42,9,4,16,0.00
2013-11-2,47.7,40.3,32.7,36.9,33.4,29.3,92,77,57,30.17,29.78,7,2,11,0.00
2013-11-3,51.7,40.9,28.3,37.7,32.8,26.3,95,75,52,30.28,30.13,12,5,22,0.00
2013-11-4,53.9,49.6,44.9,46.0,40.6,35.3,81,71,63,30.14,30.00,14,6,22,0.00
2013-11-5,55.0,50.8,46.7,53.0,47.7,43.8,95,90,80,30.22,29.81,11,3,17,0.50
2013-11-6,57.2,43.6,32.8,55.7,36.2,24.1,95,76,47,30.23,29.71,10,5,19,0.13
2013-11-7,43.3,35.2,29.6,32.2,28.5,24.3,89,77,62,30.28,30.22,8,2,12,0.00
2013-11-8,48.9,39.4,27.9,35.7,29.6,24.5,89,70,47,30.30,29.79,14,5,28,0.00
2013-11-9,54.2,47.5,38.8,41.0,36.5,27.6,75,66,57,30.19,29.78,12,7,21,0.00
2013-11-10,48.4,41.0,33.5,32.4,30.0,27.1,78,65,53,30.37,30.16,9,4,19,0.00
2013-11-11,46.1,34.6,22.1,34.8,26.2,13.9,91,72,62,30.64,30.08,12,5,17,0.12
2013-11-12,28.9,22.3,17.8,16.6,13.6,11.5,77,69,53,30.81,30.64,7,3,13,0.00
2013-11-13,43.4,31.9,18.8,20.0,16.4,12.1,76,54,37,30.64,30.10,15,6,24,0.00
2013-11-14,49.7,41.1,33.5,31.1,26.5,19.3,64,56,47,30.10,29.90,10,5,16,0.00
2013-11-15,56.2,45.0,33.6,38.4,33.3,27.9,81,64,49,29.94,29.82,8,3,13,0.00
2013-11-16,60.1,50.6,41.1,56.2,47.4,34.9,95,89,75,29.83,29.40,13,7,26,0.17
2013-11-17,58.4,49.4,40.6,56.0,45.6,33.6,97,87,75,29.81,29.22,12,6,22,1.13
2013-11-18,41.8,35.9,29.1,33.4,27.1,24.0,82,71,54,30.30,29.81,11,5,23,0.00
2013-11-19,41.4,33.8,25.5,30.0,26.0,22.1,88,74,56,30.36,30.20,10,5,15,0.00
2013-11-20,39.1,36.8,35.6,36.0,31.5,28.9,92,81,69,30.21,30.05,11,7,19,0.08
2013-11-21,41.8,39.8,38.4,37.6,36.5,35.3,93,88,83,30.31,30.09,6,2,13,0.01
2013-11-22,38.6,30.2,22.5,35.6,23.4,14.3,92,76,58,30.55,30.31,10,3,18,0.04
2013-11-23,22.8,18.2,12.3,15.3,8.0,3.8,79,64,50,30.80,30.51,13,5,22,0.00
2013-11-24,27.6,18.8,9.2,10.5,6.2,3.5,78,59,38,30.78,30.33,12,5,17,0.00
2013-11-25,31.8,27.5,22.5,27.1,21.7,10.5,93,79,56,30.33,30.08,15,7,18,0.01
2013-11-26,33.2,26.6,16.1,26.9,16.3,5.4,83,65,48,30.31,30.07,11,5,17,0.01
2013-11-27,26.1,18.8,11.1,12.7,8.6,3.5,72,64,51,30.37,30.23,6,3,10,0.00
2013-11-28,30.2,23.9,17.9,18.0,14.8,11.7,84,68,59,30.55,30.15,7,2,11,0.00
2013-11-29,32.8,24.2,11.9,22.1,16.8,8.0,89,74,62,30.64,30.34,9,3,15,0.00
2013-11-30,45.8,34.9,28.8,33.1,27.5,22.1,92,74,60,30.34,30.05,10,3,14,0.00
2013-12-1,40.9,33.6,27.3,31.1,28.2,24.3,91,81,66,30.18,29.98,5,1,8,0.00
2013-12-2,39.6,34.2,27.8,34.6,30.0,24.4,92,85,75,29.98,29.70,10,4,17,0.01
2013-12-3,41.0,38.3,36.1,39.9,36.9,33.3,97,95,89,29.70,29.62,7,2,14,0.10
2013-12-4,49.4,39.9,27.8,48.8,38.7,24.3,98,95,87,29.76,29.45,12,4,21,0.02
2013-12-5,27.7,18.5,13.2,24.3,11.5,5.0,87,74,66,30.38,29.76,14,7,25,0.00
2013-12-6,16.4,10.8,6.3,6.0,2.8,-0.5,76,70,59,30.66,30.35,8,4,14,0.00
2013-12-7,15.8,8.6,0.8,2.8,-0.8,-4.7,78,66,48,30.80,30.65,6,2,10,0.00
2013-12-8,20.3,15.9,11.3,17.8,10.0,0.5,90,78,60,30.67,30.02,8,3,12,0.00
2013-12-9,17.7,7.9,-1.3,15.2,2.5,-7.1,90,78,65,30.29,30.02,13,5,23,0.00
2013-12-10,17.1,10.8,-2.8,11.5,4.0,-8.1,84,74,64,30.31,30.00,15,6,24,0.00
2013-12-11,17.5,7.7,-3.7,14.3,0.4,-9.6,87,72,54,30.62,30.30,9,4,14,0.00
2013-12-12,18.7,10.4,-2.8,12.1,3.5,-8.8,83,73,66,30.58,30.23,10,3,14,0.00
2013-12-13,25.5,19.3,12.2,19.8,14.4,8.4,86,81,71,30.24,30.11,9,4,12,0.00
2013-12-14,25.2,21.6,15.5,20.2,17.4,10.1,90,84,77,30.18,30.05,10,5,16,0.00
2013-12-15,15.3,10.6,6.0,9.0,2.7,-0.8,83,70,63,30.18,30.05,11,4,20,0.00
2013-12-16,20.0,12.9,8.1,17.3,7.8,0.2,92,80,68,30.18,30.04,7,2,12,0.00
2013-12-17,35.4,25.6,17.0,27.0,18.5,14.0,90,75,55,30.17,30.01,12,6,23,0.04
2013-12-18,37.9,26.8,14.4,27.2,18.7,10.7,86,72,50,30.18,29.80,12,3,20,0.00
2013-12-19,33.2,28.6,23.8,28.6,24.7,20.6,92,85,73,29.95,29.81,10,4,15,0.00
2013-12-20,29.2,24.5,22.6,26.9,22.1,19.9,98,90,87,29.91,29.83,10,4,14,0.00
2013-12-21,27.9,25.9,23.6,27.5,23.9,21.9,100,92,90,29.91,29.74,9,3,13,0.00
2013-12-22,27.4,24.1,16.8,25.4,22.0,13.9,95,92,88,30.22,29.75,8,4,14,0.01
2013-12-23,16.6,1.0,-5.7,13.7,-4.1,-11.1,88,79,72,30.57,30.22,12,5,17,0.00
2013-12-24,10.9,-0.3,-9.6,8.3,-5.3,-13.8,89,79,71,30.64,30.33,9,3,12,0.00
2013-12-25,23.9,19.5,11.2,21.4,16.2,8.4,91,87,78,30.33,30.16,9,4,15,0.00
2013-12-26,30.5,24.7,15.1,25.7,19.5,9.9,92,81,74,30.24,30.15,8,2,13,0.00
2013-12-27,40.2,28.9,14.8,30.2,23.1,11.7,90,79,67,30.28,30.06,11,3,19,0.05
2013-12-28,46.2,37.5,26.6,34.3,29.8,23.4,92,74,62,30.09,29.77,11,3,17,0.00
2013-12-29,38.4,18.2,-1.6,30.5,11.4,-11.1,91,75,63,30.34,29.77,10,6,21,0.00
2013-12-30,6.4,-0.2,-7.2,2.9,-7.2,-13.6,91,72,52,30.39,30.27,5,1,8,0.00
2013-12-31,8.3,4.0,-4.7,4.7,0.1,-8.8,86,83,77,30.40,30.28,6,1,10,0.00
2014-1-1,11.4,7.5,2.7,6.3,2.3,-2.3,86,79,73,30.40,30.33,9,5,13,0.00
2014-1-2,14.3,7.6,-3.3,5.3,0.7,-7.7,84,73,65,30.52,30.33,9,3,13,0.00